Terug naar catalogus

STARLINK-2683

ActiefCommunicatieVLEO
NORAD 48462·PAYLOAD·🇺🇸 United States

Gelanceerd May 9, 2021 vanaf Cape Canaveral Space Force Station

Loading…

Volgende Passages (komende 24 uur)

TLE

VersSource: CelesTrak SupGP

Epoch: Sep 14, 2026, 21:19 UTC

1 48462C 21040AL  26257.88868056  .00024115  00000+0  77622-3 0  2578
2 48462  53.1603  30.5826 0001280  80.1331 261.5266 15.31659858    15

Volg STARLINK-2683 in realtime met AllMySat

Download on the App Store